Temp
9 9 10 10 10 10 11 11 11 11 11 12 12 12 12 12 12 12 12 12 13 13 13 13 13 13 13 14 14 14 14 14 14 14 14 14 14 15 15 15 15 15 15 15 15 15 15 15 15 15 15 15 15 15 15 15 14 14 14 14 14 14 14 14 14 15 16 16 16
9 10 10 10 10 10 11 11 11 11 11 11 12 12 12 12 12 12 12 12 12 12 13 13 13 13 13 13 13 14 14 14 14 14 14 14 14 14 15 15 15 15 15 15 15 15 15 15 14 14 14 15 15 15 15 14 14 14 14 14 14 14 14 14 14 14 15 16 16
9 10 10 10 10 10 10 11 11 11 11 11 12 12 12 12 12 12 12 12 12 12 12 13 13 13 13 13 13 13 13 14 14 14 14 14 14 14 14 15 15 15 15 15 15 15 15 14 14 14 14 14 14 14 14 14 14 14 14 14 14 13 13 13 13 14 15 16 16
10 10 10 10 10 10 10 11 11 11 11 11 11 11 11 12 12 12 12 12 12 12 12 12 13 13 13 13 13 13 13 13 14 14 14 14 14 14 14 15 15 15 15 15 15 15 15 14 14 14 14 14 14 14 14 14 14 14 14 14 14 13 13 13 13 14 14 15 16
10 10 10 10 10 10 10 10 11 11 11 11 11 11 11 11 11 12 12 12 12 12 12 12 12 12 13 13 13 13 13 14 14 14 14 14 14 14 14 15 15 15 15 15 15 15 15 15 14 14 14 14 14 14 15 14 14 14 14 14 14 14 13 13 13 13 14 14 15
10 10 10 10 10 10 10 10 10 11 11 11 11 11 11 11 11 11 11 12 12 12 12 12 12 12 13 13 13 13 13 14 14 14 14 14 14 14 15 15 15 15 15 15 15 15 15 15 14 14 14 14 14 14 14 15 14 14 14 14 13 13 13 13 13 13 13 14 15
10 10 10 10 10 10 10 10 10 10 11 10 10 10 11 11 11 11 11 11 12 12 12 12 12 12 12 13 13 13 14 14 14 14 14 14 14 14 15 15 15 15 15 15 15 15 15 15 15 14 14 14 14 14 14 14 14 14 14 13 13 13 13 13 13 13 13 14 14
10 10 10 10 10 10 10 10 10 10 10 10 10 10 11 11 11 11 11 11 11 11 12 12 12 12 12 13 13 13 14 14 14 14 14 14 14 14 14 14 15 15 15 15 15 15 15 14 15 15 14 14 14 14 14 14 14 13 13 13 13 13 13 13 13 13 13 14 15
10 10 10 10 10 10 10 10 10 10 10 10 10 11 11 11 11 11 11 11 11 11 11 12 12 12 12 13 13 13 14 14 14 14 14 14 14 14 14 14 15 15 15 15 15 15 14 14 14 15 15 14 14 14 14 14 14 13 13 13 13 13 13 13 13 13 14 14 16
10 10 10 10 10 10 10 10 11 11 11 11 11 11 11 11 11 11 11 11 11 12 12 12 12 12 13 13 13 13 14 14 14 14 14 14 14 14 14 14 14 15 15 15 15 15 14 14 14 14 15 14 14 14 13 13 13 13 13 13 13 13 13 13 13 13 14 15 16
11 11 11 11 11 11 11 11 11 11 11 11 11 11 11 11 11 11 11 12 12 12 12 12 12 12 13 13 13 13 14 14 14 14 14 14 14 14 14 14 14 15 15 15 15 14 14 14 14 14 14 14 14 13 13 13 13 13 13 13 13 13 13 13 13 13 14 15 17
11 11 11 11 11 11 11 11 11 11 11 11 11 11 11 11 11 11 12 12 12 12 12 12 12 13 13 13 13 13 13 13 13 14 14 14 14 14 14 14 14 15 15 15 14 14 14 14 14 14 14 14 14 13 13 13 13 13 13 13 13 13 13 13 13 13 14 15 17
11 11 11 11 11 11 11 11 11 11 11 11 11 11 11 11 12 12 12 12 12 12 12 12 13 13 13 13 13 13 13 13 13 13 14 14 14 14 14 14 15 15 15 14 14 14 14 14 14 14 14 14 13 13 13 13 13 13 13 13 13 13 13 13 13 14 14 15 16
11 11 11 11 11 11 11 11 11 11 11 11 11 11 11 12 12 12 12 12 12 12 12 12 13 13 13 13 13 13 13 13 13 13 14 14 14 14 14 15 15 15 15 14 14 14 14 14 14 14 14 13 13 13 13 13 13 13 13 13 13 13 13 13 13 14 15 15 15
11 11 11 11 11 11 11 11 11 11 12 12 12 12 12 12 12 12 12 12 12 12 12 13 13 13 13 13 13 13 13 13 13 14 14 14 14 14 14 14 15 15 15 14 14 14 14 14 14 14 14 13 13 13 13 13 13 13 13 13 13 13 13 13 13 14 14 14 14
11 11 11 11 11 11 11 11 11 11 12 12 12 12 12 12 12 12 12 12 12 13 13 13 13 13 13 13 13 13 13 13 13 14 14 14 14 14 14 14 14 14 14 14 14 14 14 14 14 14 14 13 13 13 13 13 13 13 13 13 13 13 13 13 13 13 13 13 13
11 11 11 11 11 11 11 11 11 11 11 12 12 12 12 12 12 12 13 13 13 13 13 13 13 13 13 13 13 13 14 14 14 14 14 14 14 14 14 14 14 14 14 14 14 14 14 14 13 14 13 13 13 13 13 13 13 13 13 13 13 13 13 13 13 13 13 13 13
9 10 10 11 11 11 12 11 11 11 12 12 12 12 12 12 12 12 13 13 13 13 13 13 13 13 14 14 14 14 14 14 14 14 14 14 14 14 14 14 14 14 14 14 14 13 13 13 13 13 13 13 13 13 13 13 13 13 13 13 13 13 13 13 13 13 13 13 13
7 7 8 9 10 11 11 12 12 12 12 12 12 12 12 12 12 12 12 12 13 13 13 13 13 13 14 14 14 14 14 14 13 13 13 13 13 13 13 13 13 13 13 13 13 13 13 13 13 13 13 13 13 13 13 13 13 13 13 13 13 13 13 13 13 13 13 13 13
6 6 7 7 8 9 10 11 12 12 12 12 12 12 12 12 12 12 12 12 13 13 13 13 13 13 14 14 14 14 14 14 13 13 13 13 13 13 13 13 13 13 13 13 13 13 13 13 13 13 13 13 13 13 13 13 13 13 13 13 13 13 13 13 13 13 13 13 13
6 6 6 6 7 7 8 9 9 10 11 11 11 12 12 12 12 12 12 13 13 13 13 13 13 14 14 14 14 14 14 14 13 13 13 13 13 13 13 13 13 13 13 13 13 13 13 13 13 13 13 13 13 13 13 13 13 13 13 13 13 13 13 13 13 13 13 13 13
6 6 6 6 6 6 7 7 7 8 8 8 9 9 10 11 12 13 13 13 13 13 13 14 14 14 14 14 14 14 14 14 13 13 13 13 13 13 13 13 13 13 13 13 13 13 13 13 14 13 13 13 13 13 13 13 13 13 13 13 13 13 13 13 13 13 13 13 13
6 6 6 6 6 6 6 6 7 7 7 7 8 8 9 10 11 12 13 14 14 14 14 14 14 14 14 14 14 14 14 14 14 13 13 13 13 13 13 13 13 14 13 13 13 13 13 13 13 13 13 13 13 13 13 13 13 13 13 13 13 13 13 13 13 13 13 13 13
6 6 6 6 6 6 6 6 6 6 6 7 7 8 8 9 9 10 11 12 13 13 14 14 14 14 14 14 14 14 14 14 14 14 13 13 13 13 13 13 13 13 13 13 13 13 13 13 13 13 13 13 13 13 13 13 13 13 13 13 13 13 13 13 13 13 13 13 14
5 5 5 5 5 6 6 6 6 6 6 6 6 6 6 7 7 8 8 8 9 10 11 12 13 14 14 14 14 14 14 14 14 14 14 14 13 13 13 13 13 13 13 13 13 13 13 13 13 13 13 13 13 13 13 13 13 13 13 13 13 13 13 13 13 13 13 13 14
5 5 5 5 5 5 5 5 6 6 6 6 6 6 6 6 7 7 8 8 8 8 9 10 11 12 13 13 14 14 14 14 14 14 14 14 14 14 13 13 13 13 13 13 13 13 13 13 13 13 13 13 13 13 13 13 13 13 13 13 13 13 13 13 13 13 13 13 13
5 5 5 5 5 5 5 5 5 5 5 5 5 6 6 6 6 6 7 7 7 8 8 9 9 9 10 12 13 14 14 14 14 14 14 14 14 14 14 14 13 13 13 13 13 13 13 13 13 13 13 13 13 13 13 13 13 13 13 13 13 13 13 13 13 13 13 13 13
5 5 5 5 5 5 5 5 5 5 5 5 5 5 5 6 6 6 6 6 7 7 7 8 8 8 9 9 10 11 12 13 13 13 14 14 14 14 14 14 14 14 13 13 13 13 13 13 13 13 13 13 13 13 13 13 13 13 13 13 13 13 12 12 12 12 13 13 13
4 5 5 5 5 5 5 5 5 5 5 5 5 5 5 5 5 5 6 6 6 6 6 6 7 7 8 8 8 9 10 11 12 13 13 13 13 13 13 13 14 13 13 13 13 13 13 13 13 13 13 13 13 13 13 13 13 13 13 13 13 12 12 12 12 12 12 12 12
4 4 4 5 5 5 5 5 5 5 5 5 5 5 5 5 5 5 5 5 5 5 6 6 6 6 7 7 7 8 8 9 10 11 12 13 13 13 13 13 13 13 13 13 13 13 13 13 13 13 13 13 13 13 13 13 13 13 13 13 12 12 12 12 12 12 12 12 12
4 4 4 4 4 4 4 5 5 5 5 5 5 5 5 5 5 5 5 5 5 5 5 5 6 6 6 6 7 7 7 8 8 9 9 10 11 12 13 13 13 13 13 13 13 13 13 13 13 13 13 13 13 13 13 13 13 13 13 13 13 12 12 12 12 12 12 12 12
3 3 4 4 4 4 4 4 4 5 5 4 4 4 4 4 4 5 5 5 5 5 5 5 5 5 5 6 6 6 7 7 7 7 8 8 9 10 11 12 12 12 12 13 13 13 13 13 13 13 13 13 13 13 13 13 13 13 13 13 13 13 13 12 12 12 12 12 12
3 3 3 3 3 4 4 4 4 4 4 4 4 4 4 4 4 4 4 4 5 5 5 5 5 5 5 5 5 6 6 6 6 7 7 8 8 8 8 8 9 9 10 11 12 13 13 13 13 13 13 13 13 13 13 13 13 13 13 13 13 13 13 13 12 12 12 12 12
2 2 3 3 3 3 3 4 4 4 4 4 4 4 4 4 4 4 4 4 4 4 4 4 5 5 5 5 5 5 5 6 6 6 7 7 7 7 7 7 8 8 9 10 11 12 13 13 13 13 13 13 13 13 13 13 13 13 13 13 13 13 13 12 12 12 12 12 12
2 2 2 3 3 3 3 3 3 3 4 4 4 4 4 4 4 4 4 4 4 4 4 4 4 4 4 4 5 5 5 5 5 6 6 6 6 6 6 7 7 8 8 9 10 11 12 13 13 13 13 13 12 12 12 13 13 12 12 12 12 12 12 12 12 12 12 12 12
2 2 2 2 2 2 3 3 3 3 3 3 3 3 4 4 4 4 4 4 4 4 4 4 4 4 4 4 4 4 4 4 5 5 5 6 6 6 6 6 6 7 7 8 8 9 10 11 12 12 13 12 12 12 12 12 12 12 12 12 12 12 12 12 12 12 12 12 12
1 1 2 2 2 2 2 2 3 3 3 3 3 3 3 3 3 4 4 4 4 4 4 4 4 4 4 4 4 4 4 4 4 4 5 5 5 5 5 5 6 6 6 7 7 7 8 8 9 10 11 11 12 12 12 12 12 12 12 11 11 11 11 11 11 12 12 12 12
1 1 1 2 2 2 2 2 2 2 2 3 3 3 3 3 3 3 3 3 4 4 4 4 4 4 4 4 4 4 4 4 4 4 4 4 4 4 5 5 5 5 6 6 6 7 7 7 7 8 8 9 10 10 11 11 11 11 11 11 11 11 11 11 11 11 11 11 11
0 0 1 1 1 2 2 2 2 2 2 2 2 2 3 3 3 3 3 3 3 3 3 4 4 4 4 4 4 4 4 5 4 4 4 4 4 4 4 4 4 5 5 6 6 6 7 7 7 7 7 7 7 8 8 9 9 9 9 9 9 9 10 10 10 10 10 10 10
-0 -0 0 1 1 1 1 1 2 2 2 2 2 2 2 2 3 3 3 3 3 3 3 3 4 4 4 4 4 4 4 5 5 5 4 4 4 4 4 4 4 4 5 5 5 6 6 6 7 7 7 7 6 6 6 7 7 7 7 7 7 8 8 8 8 9 9 9 9
-1 -1 -0 0 0 1 1 1 1 1 2 2 2 2 2 2 2 3 3 3 3 3 3 3 4 4 4 4 4 4 4 4 4 4 5 5 4 4 4 4 4 4 4 4 5 5 5 6 6 6 7 7 7 6 6 6 6 5 5 6 6 6 6 6 7 7 8 8 8
Height
688 689 690 691 692 692 693 693 693 693 693 693 692 692 693 694 694 694 694 695 695 696 696 696 696 697 697 698 699 700 700 701 701 701 701 702 703 703 703 703 704 706 707 708 710 712 714 714 715 715 715 716 718 720 721 722 724 726 729 731 733 735 737 740 742 745 747 749 750
685 686 687 688 689 690 691 691 691 691 691 691 691 691 691 691 691 691 691 692 692 693 693 694 694 694 695 695 696 697 698 698 699 699 698 699 700 701 701 701 702 703 704 706 707 709 711 711 712 712 712 714 715 717 718 719 721 723 725 728 730 732 735 737 740 742 745 748 749
682 683 685 686 686 687 688 688 689 689 689 689 689 689 689 689 689 689 689 690 690 691 691 691 691 691 692 693 694 694 695 696 696 696 696 696 697 698 699 699 700 701 702 703 705 706 707 708 709 709 710 711 712 713 715 716 718 720 722 724 727 729 732 734 736 740 743 746 748
680 681 682 683 683 684 685 686 686 687 687 687 687 687 687 687 687 687 687 687 688 688 688 688 689 689 690 690 691 691 692 692 693 693 693 693 694 695 696 696 697 698 699 700 701 702 703 705 706 707 707 708 709 711 712 714 716 717 719 721 724 726 728 731 733 736 740 744 746
678 679 680 680 681 681 682 683 684 685 686 686 686 685 684 684 684 684 685 685 686 686 686 686 686 687 687 687 688 688 689 689 690 690 690 690 691 691 692 693 694 694 696 697 698 698 700 701 703 704 705 706 707 708 709 712 713 715 716 719 721 722 725 727 730 732 736 741 745
676 677 678 678 678 679 680 680 680 681 683 683 683 682 681 681 681 682 682 682 682 683 683 684 684 684 684 685 685 685 686 686 686 686 687 687 687 688 688 689 690 691 692 693 694 695 696 698 699 701 702 704 706 706 707 710 712 713 715 716 718 720 721 724 726 729 733 737 743
674 675 676 676 676 677 677 677 677 678 679 680 680 679 678 678 678 678 679 679 680 680 681 681 681 681 681 682 682 682 682 682 683 683 683 684 684 685 685 685 686 687 688 689 690 692 693 694 696 698 700 702 704 705 706 708 709 711 712 713 715 716 718 721 723 726 729 734 739
673 673 674 674 675 675 675 675 676 676 676 677 676 676 676 675 675 676 676 677 677 677 677 678 678 678 678 679 679 679 679 679 679 679 680 681 681 681 681 681 682 683 683 684 686 688 689 691 693 695 697 699 701 702 703 705 706 708 709 710 711 713 715 717 720 722 726 730 736
671 671 672 672 672 672 673 673 673 674 674 674 673 673 673 673 673 674 674 674 674 675 675 675 675 675 676 676 675 676 676 676 676 676 677 677 678 678 679 679 679 679 680 681 682 684 686 687 689 691 694 696 697 698 700 701 704 705 706 708 709 710 711 713 716 719 723 727 732
669 669 670 670 670 670 670 671 671 671 671 670 670 670 671 671 671 671 671 671 671 672 672 672 672 672 672 672 672 672 672 673 673 673 674 674 675 675 676 676 676 676 676 677 679 681 682 684 686 687 690 691 693 695 696 698 700 702 704 706 706 707 708 710 712 716 721 725 728
668 668 668 668 668 668 668 669 668 668 668 668 667 667 667 668 668 668 668 668 668 668 668 668 669 669 669 669 669 669 669 670 670 670 671 671 671 672 673 673 673 673 673 674 675 677 679 681 682 684 686 688 690 692 693 694 696 698 701 702 703 705 706 707 710 715 719 722 724
666 666 666 666 666 666 666 666 666 666 666 666 665 665 665 665 665 665 665 665 665 665 665 665 666 666 666 666 666 666 666 667 667 667 667 668 668 668 669 670 670 670 670 671 672 674 676 677 679 681 682 684 687 688 690 691 693 695 697 699 701 703 704 706 708 712 716 719 721
665 665 664 664 664 664 664 664 663 663 663 663 663 663 663 662 662 662 662 662 662 662 662 662 662 663 663 663 663 663 663 664 664 664 664 664 665 665 666 666 667 667 667 668 669 671 673 674 676 678 679 681 683 685 686 688 690 691 694 696 699 701 703 704 707 711 714 716 717
663 663 663 662 662 662 662 661 661 661 661 661 661 661 661 660 660 659 659 659 659 659 659 659 659 659 659 660 660 660 661 661 661 661 661 661 661 661 662 662 663 663 664 666 667 668 670 671 673 675 676 678 679 681 682 685 686 688 691 693 696 699 701 703 705 708 710 712 713
662 662 661 661 661 661 660 660 659 658 658 658 658 658 658 657 657 656 656 656 656 656 656 656 656 656 656 657 657 657 657 657 657 657 657 657 657 657 658 658 659 660 661 662 664 665 666 668 670 672 673 675 676 678 680 682 684 686 688 690 693 696 698 700 702 705 707 708 710
661 661 661 660 660 660 659 658 657 656 656 656 656 655 654 654 653 653 653 654 654 654 654 654 653 653 654 654 654 654 654 654 654 654 653 653 653 653 654 655 656 656 658 659 661 662 664 666 667 669 671 672 674 676 677 680 682 684 686 688 690 693 695 697 700 702 704 706 708
661 660 659 659 658 657 656 655 654 654 653 653 653 652 651 651 651 651 651 651 652 652 652 652 651 651 651 651 651 652 652 651 651 650 650 649 650 650 651 652 653 654 655 656 657 659 661 663 665 666 668 670 671 673 675 677 680 682 684 686 688 691 692 695 697 700 702 704 706
661 660 658 657 656 655 653 652 651 651 650 650 650 650 649 649 649 648 649 649 649 650 650 650 650 649 648 648 648 649 649 648 647 647 646 646 647 648 649 650 651 651 652 653 655 656 658 660 662 664 666 667 668 670 672 676 678 681 683 685 687 689 691 693 696 698 700 702 704
660 659 657 656 654 653 651 650 649 648 648 648 648 648 648 647 647 647 647 646 647 647 647 647 647 646 646 645 645 645 645 645 645 644 644 644 645 646 646 648 649 650 651 652 653 654 656 657 659 661 663 665 666 669 672 675 678 680 681 683 685 687 689 691 693 696 698 700 702
661 660 658 656 654 652 650 649 648 647 647 647 647 646 646 645 645 645 644 644 644 644 644 644 644 643 642 641 641 641 642 642 642 643 643 643 643 644 645 646 647 649 650 651 652 653 654 655 657 659 661 663 666 669 672 674 676 678 679 681 682 685 686 689 691 693 696 698 700
664 662 660 658 655 653 651 649 648 648 648 648 647 646 645 644 643 642 641 641 641 641 641 641 641 640 640 639 638 638 639 640 641 641 642 642 642 643 643 645 646 647 649 650 651 652 653 655 656 659 661 664 667 669 671 672 674 676 677 679 681 683 685 686 689 691 693 695 697
666 664 662 660 657 654 652 650 649 648 648 646 645 644 643 642 641 639 638 638 638 639 639 639 639 639 638 637 636 636 637 639 640 641 641 641 642 642 643 645 646 647 649 650 651 653 654 655 657 660 662 665 666 668 669 671 672 674 676 678 680 681 683 685 687 688 690 692 695
669 666 663 660 658 655 653 651 651 649 648 645 643 642 641 640 638 637 637 637 637 638 639 639 639 638 638 637 636 636 637 638 640 641 641 642 642 643 644 645 646 647 649 650 651 653 654 656 658 660 661 664 665 667 668 670 671 673 675 677 679 681 683 684 686 687 688 690 692
671 668 665 662 660 657 655 653 652 651 648 646 646 646 645 643 641 640 639 639 640 641 640 639 639 638 638 637 637 637 637 639 640 641 641 642 643 644 644 645 646 647 648 649 650 651 653 655 656 658 660 662 664 666 667 669 671 673 675 676 678 680 682 684 685 685 686 689 691
673 670 667 665 662 660 658 656 655 654 653 653 653 652 649 647 645 643 641 640 641 641 641 641 640 639 639 638 638 638 639 639 640 641 641 642 643 643 644 645 645 646 647 648 649 650 651 653 655 656 659 661 663 665 667 668 670 672 673 675 677 679 681 682 683 684 686 688 692
675 672 669 667 664 662 661 659 658 657 657 656 654 652 649 647 645 643 641 640 639 639 639 640 640 640 640 639 638 638 639 639 640 641 641 642 643 644 644 645 645 646 646 647 648 649 650 651 653 655 657 659 661 664 666 667 669 671 672 674 676 677 679 680 681 682 685 688 691
676 673 671 668 666 664 662 661 659 658 656 656 654 652 650 647 645 644 644 644 643 642 641 640 639 639 639 639 639 639 639 639 640 640 641 642 643 643 644 644 645 646 646 647 648 648 649 651 652 654 655 657 660 662 664 666 667 669 671 673 674 676 677 678 679 681 683 685 688
677 675 672 669 666 665 663 661 660 658 658 657 656 654 652 650 649 648 649 648 648 646 646 645 643 641 640 639 639 639 640 640 640 640 641 641 641 642 643 643 644 645 646 646 647 648 649 650 651 652 654 656 658 660 662 664 666 668 670 671 673 674 676 677 678 679 681 682 685
679 676 673 671 668 667 665 663 662 661 661 660 658 656 655 653 653 653 653 652 651 651 651 650 648 646 644 642 641 640 640 640 641 641 641 641 641 642 642 643 643 644 645 646 646 647 648 649 650 651 652 654 656 658 661 662 665 666 668 670 671 673 674 676 677 678 680 681 683
680 678 675 673 671 669 668 667 666 665 664 663 661 659 658 657 657 657 656 656 656 656 656 654 652 650 649 648 646 644 643 642 641 641 642 643 643 643 643 643 644 644 645 645 646 646 647 647 648 649 651 652 655 657 659 661 663 665 666 668 669 671 672 674 675 677 679 681 683
682 680 678 676 674 672 671 671 670 669 667 666 664 663 662 661 661 661 661 661 660 659 658 656 654 653 653 652 651 650 648 646 645 644 644 644 644 644 644 644 645 645 646 646 646 646 646 646 647 648 650 651 654 656 658 659 661 663 664 666 667 669 671 672 674 675 676 679 681
685 683 681 679 677 676 675 674 673 672 671 669 668 667 666 666 666 665 664 663 662 661 659 657 656 655 655 654 653 653 651 650 649 648 647 646 645 645 645 646 646 646 646 646 646 646 647 647 647 648 649 651 653 655 656 658 660 661 663 664 666 668 669 671 672 674 675 677 679
688 686 684 682 681 680 678 677 676 675 673 672 671 671 670 669 668 667 666 665 664 663 661 660 659 658 658 657 656 655 654 653 652 651 651 650 648 647 646 646 646 646 646 646 646 646 647 647 648 649 650 652 654 655 656 657 659 660 661 663 665 666 668 669 671 672 673 675 677
691 689 687 686 684 683 681 680 679 677 676 675 674 674 673 672 671 670 669 668 667 666 664 663 662 662 661 661 660 659 657 656 656 655 654 653 651 650 649 648 647 646 646 646 646 647 647 647 648 649 651 653 654 655 656 656 658 659 660 662 663 664 666 667 668 670 671 673 675
694 692 691 689 687 686 684 683 681 680 678 677 677 676 676 675 674 673 672 671 669 668 666 665 665 664 663 662 662 661 660 659 658 657 657 656 654 653 652 651 651 650 649 648 647 647 648 648 648 649 651 652 653 654 654 655 656 657 659 660 661 662 663 665 666 667 668 670 672
698 696 694 692 691 689 687 686 684 682 681 680 679 678 678 677 676 676 675 673 671 669 668 667 666 666 665 664 664 663 663 662 661 660 659 658 657 656 655 654 653 652 651 650 649 648 648 649 649 650 650 651 652 652 653 654 655 656 657 658 659 660 661 663 664 665 666 668 671
701 700 697 696 693 692 690 688 686 685 683 682 682 681 680 679 678 677 676 674 672 671 670 669 668 667 667 667 666 666 666 665 664 663 662 661 660 659 658 657 656 655 653 652 651 650 649 649 649 650 650 651 651 651 652 653 653 654 655 656 657 658 660 661 662 663 665 666 668
705 703 701 699 697 695 693 691 689 688 686 686 684 683 682 681 679 678 677 676 675 674 673 672 671 671 670 670 669 668 667 667 666 665 664 663 662 661 660 659 658 657 656 655 654 653 652 651 649 649 649 650 650 651 651 651 652 652 653 654 656 656 658 659 660 661 662 664 665
708 706 704 702 700 698 696 694 693 691 690 689 687 685 684 682 681 681 680 678 678 677 676 675 674 673 672 671 671 670 669 668 667 667 666 665 665 664 662 661 660 659 658 657 656 656 655 654 653 652 651 651 651 651 651 651 651 651 652 653 654 655 656 657 658 659 660 661 663
710 708 706 705 703 701 699 698 696 695 694 692 690 688 687 686 685 683 681 680 679 678 678 677 676 676 674 673 672 671 670 670 669 668 668 667 666 665 664 663 662 661 660 659 658 658 657 656 656 655 655 654 653 653 652 652 652 652 652 653 653 654 655 656 656 657 659 660 661
712 711 709 707 706 704 702 701 699 698 696 695 693 692 691 689 687 685 684 682 681 680 680 679 678 677 676 675 674 673 672 671 671 670 670 669 667 666 666 665 664 663 662 661 660 659 658 658 657 657 657 656 656 656 655 655 655 654 654 654 654 654 655 656 656 657 658 659 660
Wind_Speed
27 26 25 25 24 23 23 25 24 25 25 25 24 25 25 26 26 26 26 26 27 27 26 26 26 26 25 26 27 29 31 32 33 34 34 35 36 37 37 35 35 36 39 43 44 42 40 39 40 39 39 40 41 42 43 44 45 45 44 43 42 43 43 40 37 36 36 38 38
28 28 27 26 25 24 24 24 23 23 24 24 25 26 26 26 26 26 26 26 26 26 26 26 27 27 27 27 28 29 31 32 33 33 34 35 36 37 37 36 36 37 39 42 44 43 41 40 39 39 38 39 40 41 42 44 45 46 45 45 43 42 42 42 41 40 39 38 39
28 28 27 27 26 26 24 23 23 24 24 25 26 26 26 26 26 26 26 27 26 27 27 26 26 27 28 28 29 30 31 32 33 33 34 35 36 38 39 39 39 40 40 41 44 44 43 41 39 38 37 37 39 40 40 42 45 46 47 46 43 42 41 41 41 41 41 39 39
27 28 28 28 28 27 26 26 25 25 26 27 29 28 27 27 27 27 27 28 27 27 27 27 28 27 27 28 30 31 32 33 34 34 35 35 37 38 40 42 43 43 42 40 43 44 44 43 40 38 36 36 38 40 41 41 43 45 46 46 44 43 41 40 41 41 41 41 39
27 28 28 29 30 30 29 27 27 27 28 28 28 29 29 28 28 27 27 27 27 27 28 28 29 29 28 29 31 32 33 34 35 36 37 37 38 39 42 44 45 45 43 41 43 45 45 44 41 38 36 35 36 39 42 42 42 43 44 44 45 45 43 42 41 42 43 42 40
26 27 28 29 30 30 30 29 29 30 31 31 28 27 28 29 29 28 28 27 28 29 30 30 30 30 30 30 31 32 34 35 37 37 36 36 37 39 42 45 45 45 44 43 43 44 45 45 42 40 39 37 35 38 42 43 41 41 41 41 42 43 44 44 44 44 44 43 42
25 26 27 28 29 30 31 30 30 30 32 31 28 26 27 29 30 30 30 29 29 29 30 30 31 31 31 32 32 33 34 36 37 37 35 35 37 39 42 44 45 47 48 47 44 44 44 46 43 40 39 38 36 37 41 42 41 40 40 40 41 41 43 44 44 44 45 45 45
26 27 28 28 29 30 31 31 30 30 31 31 29 28 28 29 30 31 31 30 30 30 30 31 31 32 32 32 33 33 34 35 35 35 34 33 36 39 41 42 45 47 48 49 47 45 45 46 42 40 39 38 36 37 40 43 42 40 40 40 39 41 43 44 43 43 44 46 48
26 27 28 29 29 30 31 32 32 32 32 32 32 31 30 29 30 31 32 32 31 32 32 31 32 33 33 33 34 35 35 34 33 33 33 35 38 40 40 41 42 45 48 49 49 47 46 45 42 41 41 39 37 37 41 44 44 43 42 40 38 40 42 43 43 43 44 46 48
25 26 28 29 30 31 31 32 33 33 34 34 35 34 33 32 32 32 33 33 33 33 33 33 33 33 33 34 35 35 35 34 33 32 32 34 37 40 41 40 41 43 45 47 48 48 46 44 43 42 42 40 39 39 41 44 45 44 42 39 37 38 41 43 43 43 44 47 49
25 26 27 28 30 31 31 31 31 31 31 32 33 35 35 35 35 35 35 34 34 34 34 33 33 33 34 34 35 35 35 34 33 32 33 34 37 40 42 42 40 41 43 45 47 47 46 44 43 43 43 42 40 39 41 45 46 45 42 37 37 37 39 42 42 43 44 47 48
26 27 28 29 30 30 31 29 28 27 27 27 29 31 33 34 35 36 36 36 35 35 35 34 34 34 34 33 34 34 34 33 33 33 34 35 37 41 43 43 42 41 43 45 46 46 45 43 42 42 43 43 41 39 41 45 46 45 42 38 37 37 39 40 41 42 43 43 43
26 27 28 29 30 30 30 29 28 27 27 27 27 27 29 31 33 34 35 35 36 36 35 35 35 35 34 34 33 32 33 33 34 35 35 37 39 42 44 44 44 43 44 45 46 45 44 44 43 43 42 42 40 40 42 45 45 44 42 39 38 38 39 39 40 40 40 38 38
22 23 24 26 26 26 27 27 28 28 27 27 27 28 28 30 32 33 33 34 35 36 36 35 35 35 35 35 33 33 33 34 34 36 37 39 41 43 44 45 46 46 45 45 46 46 46 44 44 44 43 43 40 39 42 44 43 43 42 40 40 40 40 39 39 39 39 36 35
20 21 22 22 23 23 23 24 24 25 25 26 28 29 30 30 32 32 32 32 33 34 34 34 34 34 35 36 36 35 35 35 36 37 38 39 40 43 45 46 47 48 47 46 47 47 47 46 45 44 44 43 40 39 41 44 43 42 42 41 41 41 41 38 37 38 38 36 36
23 24 24 25 25 25 25 25 24 24 25 26 28 29 29 29 30 29 29 28 29 30 31 32 33 33 35 36 37 37 37 36 37 38 38 39 40 42 44 45 46 47 48 48 47 47 47 47 46 45 44 43 41 40 40 43 42 42 41 40 41 41 40 38 39 38 37 37 36
22 24 25 26 27 28 28 28 27 27 27 27 28 28 27 26 26 26 26 27 27 28 29 32 33 34 35 36 37 38 37 37 37 38 38 39 40 40 41 42 43 45 47 47 47 47 46 45 45 45 45 44 41 40 40 41 41 41 41 40 40 40 40 39 41 39 37 38 38
14 15 16 19 23 26 29 29 28 27 27 27 27 26 25 24 23 23 24 26 27 28 29 32 34 35 36 37 38 38 37 36 36 37 38 39 39 39 39 39 40 42 43 44 45 44 44 43 42 42 42 42 40 38 38 39 39 40 41 41 41 41 42 42 42 40 38 37 38
23 21 18 15 14 17 22 26 27 27 26 26 26 25 24 23 23 24 25 27 28 29 30 32 33 34 35 37 38 38 37 36 35 35 36 37 38 38 39 38 38 38 38 39 40 41 41 41 40 39 39 38 36 36 36 38 39 41 42 42 43 43 43 43 42 42 40 39 39
27 26 24 23 20 16 12 13 18 23 25 26 26 26 26 27 27 28 28 29 30 31 32 32 32 31 32 35 37 37 37 36 34 32 33 34 35 36 37 37 36 34 34 33 34 35 36 36 36 36 36 35 35 35 36 38 39 40 41 42 43 44 44 43 43 42 42 41 41
27 26 26 27 27 27 25 21 15 11 11 13 16 18 22 26 30 32 32 32 31 31 31 31 28 25 26 30 33 35 35 33 31 30 29 30 32 33 34 34 34 32 31 30 30 31 32 32 33 34 34 34 35 36 36 37 37 38 38 39 40 42 43 43 43 43 43 42 42
27 27 28 28 30 31 33 32 31 29 26 24 21 19 16 13 18 26 30 31 30 29 28 27 25 21 19 22 27 30 30 29 28 27 27 28 29 30 31 32 32 32 31 30 30 30 31 32 33 34 34 34 34 34 34 34 34 34 35 35 37 39 40 41 41 42 42 42 44
29 30 30 31 32 34 34 35 35 34 34 35 32 30 27 22 14 8 16 24 26 25 23 21 21 19 16 17 21 23 24 24 24 24 25 26 28 29 31 32 32 32 32 32 32 33 33 33 34 35 35 34 33 32 32 31 31 31 32 33 34 36 37 38 39 39 40 42 44
30 31 32 32 34 35 37 37 37 36 37 38 36 33 31 30 27 22 12 3 10 14 16 17 17 17 16 15 16 18 19 20 20 21 22 24 26 28 30 31 32 32 32 33 35 35 35 35 35 35 35 34 33 32 31 31 31 30 30 30 31 33 34 35 35 37 39 42 41
30 31 32 34 35 36 37 38 38 38 38 38 37 35 33 34 35 35 33 29 22 14 8 6 9 13 15 16 17 18 18 18 18 18 19 20 22 24 26 28 29 30 31 32 34 36 37 36 35 35 34 34 33 33 32 32 31 31 30 29 29 30 30 31 32 35 37 39 39
31 33 34 34 36 37 37 37 37 37 37 37 36 36 35 36 38 39 40 39 37 33 28 22 14 7 5 11 17 20 21 20 20 20 20 20 20 21 22 23 25 27 28 29 32 36 37 37 37 36 35 34 33 33 32 31 32 32 31 30 29 28 27 27 28 31 34 36 36
32 33 34 35 36 37 37 37 37 38 38 38 38 38 38 39 40 41 41 40 39 37 34 32 29 24 18 9 4 11 16 19 22 23 23 23 23 23 22 22 24 25 26 27 31 35 38 38 38 38 36 34 33 32 32 31 32 32 31 31 31 30 29 27 27 29 31 32 32
32 33 34 35 36 37 38 38 39 39 39 39 39 39 40 41 42 41 40 39 39 38 36 34 33 31 29 25 19 11 3 8 14 18 20 22 24 25 24 24 24 26 27 28 31 34 37 39 39 39 37 35 33 32 31 31 31 31 32 32 32 32 32 31 29 29 30 30 30
34 35 35 36 36 37 38 38 39 39 39 39 39 40 41 41 41 40 38 38 37 36 34 32 33 33 33 33 31 26 20 13 5 5 11 15 19 21 22 21 22 24 26 30 32 34 36 37 38 38 37 35 32 31 30 30 30 31 31 31 31 32 33 33 32 31 31 31 31
36 36 36 36 36 37 37 37 38 38 38 38 39 40 40 40 40 38 37 36 34 33 31 31 32 33 34 34 33 32 29 25 19 13 7 6 11 15 17 17 17 18 22 26 31 33 35 35 36 35 34 33 32 30 29 30 31 31 31 30 30 31 32 33 33 33 33 33 34
36 36 37 37 37 37 37 36 37 37 38 38 39 39 39 38 37 36 35 34 33 32 32 33 33 33 33 33 32 32 31 29 26 24 20 15 8 6 11 14 15 16 17 21 27 31 33 33 33 32 32 31 30 29 29 29 30 31 31 31 30 31 31 32 32 33 34 35 36
36 36 36 36 36 36 36 36 36 36 37 38 38 38 37 35 35 34 34 33 33 33 33 34 34 33 33 32 32 31 31 31 30 28 26 24 21 16 9 4 3 6 11 16 22 28 31 32 31 31 30 30 29 29 28 28 29 30 31 32 32 33 33 32 32 34 35 37 38
36 35 35 35 35 35 36 36 36 36 36 36 36 36 35 34 34 34 34 33 33 33 33 32 32 32 31 31 31 31 31 30 30 28 27 25 24 23 21 19 16 11 5 8 16 23 28 31 31 31 31 31 30 30 29 29 29 29 31 32 34 36 37 37 36 37 38 39 39
36 35 34 34 34 34 35 35 35 35 35 35 35 34 34 33 33 33 32 32 32 32 32 32 31 30 30 30 30 30 30 30 29 28 27 26 24 24 23 23 21 17 11 4 10 18 25 29 31 32 33 32 32 32 31 31 30 30 31 33 35 37 39 40 41 41 42 42 41
35 34 34 33 33 33 33 33 34 34 34 34 34 33 33 33 32 31 30 30 31 32 32 32 32 31 31 30 30 30 30 29 29 28 27 26 26 25 25 24 23 20 15 10 4 9 17 25 30 33 34 34 33 32 32 32 32 32 33 33 34 35 37 39 41 42 43 44 43
34 33 33 33 33 33 33 33 33 33 33 33 33 32 32 32 32 31 31 31 31 32 32 32 32 32 31 31 31 30 29 29 29 28 28 27 27 26 26 26 25 23 21 18 12 6 3 11 19 26 30 33 32 31 30 31 32 33 33 33 33 33 34 35 37 40 42 43 44
33 32 32 32 32 33 33 33 33 33 32 32 32 32 32 32 32 32 32 32 31 31 31 32 32 31 30 30 29 29 29 28 28 28 28 28 28 27 26 26 26 25 24 22 19 15 11 6 1 10 18 24 27 28 29 30 30 31 32 32 32 33 34 34 36 37 39 42 44
32 31 31 31 31 32 32 33 33 32 31 31 31 31 32 32 32 32 32 32 30 30 30 31 31 30 29 29 29 29 29 29 28 28 28 28 28 27 26 26 26 25 25 23 22 19 16 12 8 3 5 10 15 20 24 26 28 28 29 30 31 32 33 35 36 37 39 41 44
32 31 31 30 30 30 31 32 32 31 31 31 31 31 32 32 31 32 32 32 30 29 29 30 30 30 29 29 29 29 29 29 29 29 28 28 28 27 27 26 26 25 25 24 23 21 19 16 13 8 4 2 4 8 13 18 21 23 24 25 27 28 30 32 34 36 38 41 43
32 32 31 30 29 29 30 30 30 30 30 30 30 31 30 30 30 31 32 32 31 30 29 30 30 30 30 29 29 29 29 29 29 28 28 28 28 28 27 27 26 25 25 24 23 22 20 18 16 12 9 5 2 2 4 8 12 14 16 19 21 23 24 27 30 32 35 37 40
33 32 31 30 29 29 29 29 29 29 29 28 28 29 30 30 31 32 32 32 31 31 30 30 30 31 30 30 29 29 29 28 27 27 27 27 27 27 27 27 26 26 25 25 24 22 21 18 16 13 10 6 4 1 1 4 6 8 9 12 14 17 18 20 23 26 29 32 34
Wind_Direction
217 218 219 221 223 225 227 228 228 228 227 226 224 223 222 223 223 223 222 222 224 226 229 230 231 233 233 234 235 235 235 234 230 227 226 227 228 228 226 222 219 218 218 217 218 218 216 211 205 200 198 198 198 198 198 198 197 197 197 197 197 198 198 199 199 200 201 201 200
216 217 218 220 222 225 227 229 230 230 230 229 228 227 226 226 226 226 225 224 225 227 229 231 232 233 234 234 235 236 237 237 234 229 226 226 227 228 227 226 222 220 218 217 217 217 215 212 206 201 198 198 198 198 198 198 198 197 197 196 197 198 198 199 200 202 203 203 201
216 217 217 218 220 223 225 228 231 233 233 233 232 231 230 229 229 229 228 228 228 229 230 232 232 233 234 235 235 236 236 236 236 233 229 228 228 228 228 227 224 221 219 217 216 215 213 210 206 201 199 198 198 198 198 198 198 198 198 196 197 196 197 197 199 200 202 204 202
216 216 217 218 219 221 222 226 230 233 235 235 234 232 231 231 231 231 231 231 231 231 231 233 234 234 235 236 236 236 236 236 236 235 233 231 230 229 228 227 224 221 218 216 214 212 211 207 204 201 200 199 198 199 199 199 197 197 198 198 197 196 195 195 196 198 201 204 203
217 218 219 219 220 220 221 223 228 233 236 236 235 233 230 229 229 229 230 231 231 232 232 234 235 236 237 237 238 237 236 235 235 235 234 234 233 231 229 227 224 221 217 214 212 210 208 205 203 202 201 200 200 201 201 201 197 196 197 197 197 196 195 194 194 195 197 202 204
218 220 222 222 222 222 223 224 227 231 236 238 239 236 230 226 226 227 228 230 231 233 234 235 236 237 238 239 238 237 236 235 234 234 234 233 234 233 230 226 222 218 214 212 210 208 206 204 203 203 203 202 201 202 202 202 199 197 196 195 195 195 194 193 193 193 194 198 203
221 222 223 224 225 225 226 227 228 231 235 240 243 240 233 226 225 226 228 230 232 234 235 236 237 237 238 238 238 237 236 235 234 234 234 236 237 235 230 223 219 216 213 209 207 206 205 203 204 205 204 204 204 203 202 201 199 196 195 194 194 193 193 193 193 192 193 197 202
224 225 226 227 228 229 231 232 232 233 236 240 243 242 237 230 226 227 229 232 233 235 236 236 236 237 237 237 237 237 236 236 234 235 236 238 239 237 231 223 218 214 211 207 205 204 203 202 203 205 205 203 203 203 201 200 198 196 194 193 192 192 192 191 191 192 194 198 204
227 228 229 230 231 232 234 235 236 237 238 239 240 241 239 235 231 230 231 233 234 235 236 236 236 236 236 236 236 236 236 237 237 237 238 239 240 239 233 224 216 210 207 205 204 203 202 201 201 204 206 204 203 201 200 198 197 196 196 194 192 190 190 190 190 192 196 200 205
229 230 231 232 233 234 235 237 238 239 239 238 239 238 237 236 234 233 232 233 234 234 234 235 235 236 236 236 236 235 236 237 238 238 238 238 239 238 234 226 216 208 204 203 202 201 200 200 200 202 203 203 201 200 197 195 194 194 195 194 192 189 188 189 190 193 198 202 205
232 233 233 234 235 235 236 238 239 240 239 237 236 235 234 234 233 232 232 232 232 232 232 233 234 235 235 236 236 236 236 237 238 238 238 238 238 236 232 226 218 208 202 200 199 199 198 199 199 200 200 200 199 198 196 194 193 193 193 193 192 190 188 188 190 194 199 203 205
234 235 235 235 235 236 238 239 239 239 239 238 236 234 233 232 232 232 231 231 231 232 233 233 234 234 235 236 236 237 237 237 238 238 238 237 236 233 229 224 218 209 201 198 197 197 197 197 198 198 197 196 196 196 195 194 193 192 192 192 192 191 190 189 191 195 200 202 202
236 237 237 236 236 237 237 238 238 238 238 239 239 238 237 235 234 233 232 231 231 233 235 235 234 235 235 236 237 237 238 238 238 238 238 237 235 231 225 219 213 206 201 198 197 196 196 197 197 196 195 193 193 193 193 192 191 191 191 191 191 191 190 190 192 194 197 196 194
243 243 241 239 240 239 238 237 236 236 237 238 240 242 242 241 239 237 235 233 232 233 234 235 234 234 235 236 237 238 239 239 239 239 238 235 232 227 220 214 208 204 201 200 198 197 196 196 196 196 194 191 191 191 192 192 191 190 190 190 190 190 190 190 192 193 193 191 188
256 255 253 250 248 246 244 243 241 239 239 240 243 244 244 243 241 240 238 235 234 234 234 234 233 234 235 237 239 240 241 241 240 238 235 230 225 219 213 208 205 203 202 200 199 198 197 196 196 195 194 191 190 189 190 190 190 189 189 188 189 190 190 191 192 192 192 190 188
259 258 257 256 253 252 252 251 249 248 246 246 246 245 243 240 239 238 238 237 237 238 237 236 235 235 236 238 240 241 242 241 238 233 226 220 214 210 206 204 202 201 200 199 198 197 197 196 196 195 193 190 189 187 186 187 187 187 187 187 188 189 190 191 192 192 192 191 190
269 264 260 257 253 252 253 253 252 250 249 247 247 246 244 240 238 237 238 240 241 241 241 240 238 237 236 237 238 239 239 236 230 222 215 210 206 204 202 201 199 198 197 196 195 194 194 194 193 192 190 188 186 184 183 183 184 185 186 187 188 189 190 191 193 193 192 192 192
331 311 292 276 265 258 254 252 249 247 246 245 246 247 246 245 243 244 244 244 244 243 242 243 241 237 234 233 234 234 232 225 217 211 207 204 202 200 198 196 195 194 193 191 190 189 189 188 188 187 185 183 181 180 180 182 185 187 188 189 190 190 192 192 193 193 192 191 192
20 13 2 343 313 284 267 256 249 245 243 244 245 247 249 251 252 253 252 250 247 244 242 242 241 238 234 231 229 226 220 213 208 204 201 199 197 194 192 191 189 187 186 184 184 183 182 181 181 180 179 178 178 179 182 185 188 190 191 191 193 193 193 193 193 193 193 192 192
24 22 20 19 18 7 338 295 268 256 251 249 250 251 253 255 258 259 257 253 248 243 240 239 239 239 235 228 221 214 209 205 201 198 195 192 189 187 186 184 182 181 179 178 177 176 175 175 175 176 177 178 180 183 186 189 190 191 192 192 193 193 193 193 193 193 194 193 193
25 24 25 28 33 35 34 29 16 349 312 289 282 278 272 265 260 256 253 248 242 237 235 236 238 239 233 220 208 201 198 197 194 191 188 185 183 181 181 180 179 179 178 177 176 175 175 175 176 178 181 183 185 186 187 188 189 190 190 191 192 192 193 193 193 194 194 194 194
26 28 29 32 35 38 41 42 41 38 32 25 20 13 356 317 274 254 242 234 228 227 230 235 239 239 226 205 193 189 189 190 189 187 184 182 181 181 181 181 182 183 183 184 184 183 183 183 184 185 186 187 187 186 186 186 187 187 189 190 191 192 193 193 194 195 195 195 195
27 29 32 34 36 38 40 41 40 38 35 32 31 30 29 24 5 298 239 220 215 218 227 236 242 239 224 199 185 181 182 184 185 185 185 184 184 184 186 187 188 188 189 191 191 191 191 190 190 190 190 189 188 187 185 185 185 187 188 190 192 192 193 194 195 195 195 196 197
27 30 32 34 36 38 39 39 38 36 34 32 31 31 32 34 34 31 24 257 223 225 229 234 235 232 224 209 194 186 183 183 183 184 186 187 187 188 189 189 190 191 192 193 194 194 193 192 191 190 190 190 190 190 189 188 187 188 188 189 190 191 192 193 193 193 194 197 199
28 30 32 34 35 37 38 39 38 37 36 35 32 31 32 35 37 38 38 36 33 23 355 291 246 230 220 210 203 198 195 193 192 192 192 192 191 191 190 190 191 192 193 194 194 194 194 193 192 191 191 192 193 194 194 194 193 193 192 191 190 190 191 191 189 189 191 195 198
28 30 32 33 35 36 36 37 37 36 36 34 32 30 31 33 35 36 36 34 32 31 29 23 11 344 262 218 206 202 201 202 204 206 207 206 203 199 196 193 192 193 193 194 195 195 195 195 194 193 193 193 195 196 197 198 199 199 199 198 196 196 195 193 190 188 189 192 195
26 29 30 32 34 34 34 35 35 35 34 33 31 30 30 32 34 35 34 33 31 30 29 26 23 19 13 358 246 209 206 207 210 213 215 215 212 209 204 200 198 197 196 195 195 196 196 196 196 195 194 194 195 196 198 200 201 203 204 204 204 204 203 201 198 195 194 195 198
23 26 28 30 32 33 33 33 33 33 32 31 30 30 31 32 33 33 33 32 32 31 29 26 25 24 23 21 18 12 324 224 215 214 215 215 214 212 209 206 204 203 201 198 196 195 195 195 195 195 194 193 193 195 196 198 201 203 204 206 207 208 208 207 206 203 202 203 205
21 23 26 28 30 31 31 32 32 32 31 30 30 31 31 32 32 31 31 30 30 29 28 27 27 27 26 25 24 23 22 18 352 252 225 216 214 211 208 206 205 205 204 201 198 194 193 192 192 191 190 190 190 192 194 196 198 200 201 204 206 207 207 207 207 205 205 205 208
19 21 23 25 27 28 29 30 31 31 31 31 31 31 31 31 30 29 29 28 28 27 27 29 30 30 29 28 27 27 27 26 23 16 351 271 232 221 216 214 214 214 211 206 202 197 193 191 189 188 187 188 188 189 191 194 196 197 199 200 202 203 204 203 203 203 202 203 205
17 19 21 23 25 26 27 28 29 30 31 31 31 31 30 29 28 28 27 26 26 26 28 30 31 31 31 30 30 29 29 29 29 27 23 15 350 273 237 231 231 231 227 219 211 205 200 196 194 191 190 191 191 192 193 194 196 197 199 201 203 203 203 203 202 201 201 201 202
17 18 20 21 22 23 24 25 27 28 30 30 30 30 29 28 27 27 26 26 26 26 27 29 30 30 30 30 30 30 30 30 30 29 28 27 27 26 20 351 285 257 242 229 219 213 209 205 201 198 197 198 199 200 200 200 200 202 204 206 208 209 208 206 204 203 203 202 203
16 17 19 19 20 20 21 22 24 26 27 29 29 29 28 27 27 26 26 26 26 26 27 28 29 29 29 28 28 29 30 30 30 29 28 28 28 30 31 30 24 11 332 236 223 218 213 210 207 205 204 206 207 208 208 208 207 207 208 210 212 213 212 211 208 207 205 205 204
14 16 17 18 18 18 19 20 22 23 25 26 26 26 26 26 26 25 25 25 26 27 28 29 30 30 30 30 29 29 29 30 30 29 28 27 27 27 26 24 19 12 360 290 231 221 217 214 211 210 210 210 210 210 210 211 211 210 209 209 211 212 212 211 209 208 207 207 207
13 14 15 16 17 17 18 18 19 21 22 22 22 22 23 24 24 23 23 24 26 27 28 29 30 30 31 32 32 31 31 30 30 29 28 27 28 29 29 28 24 20 16 6 308 235 222 217 215 214 214 213 211 209 208 207 207 207 207 207 207 207 207 207 207 208 209 210 211
12 13 14 15 16 16 17 17 18 19 20 19 19 19 19 20 21 21 22 23 25 26 27 27 28 29 30 31 32 32 31 31 30 30 28 27 27 27 28 27 26 25 24 21 19 10 257 225 220 218 216 214 212 211 208 206 205 205 205 205 205 205 205 205 205 206 208 210 212
11 12 13 14 15 15 16 17 17 18 17 17 16 16 16 17 17 18 20 21 23 24 25 26 27 27 28 29 30 31 31 31 31 31 29 28 26 25 24 24 23 23 22 21 22 26 31 38 161 204 206 207 209 210 210 209 206 205 205 206 207 207 208 207 206 205 205 206 208
11 12 13 14 14 15 16 17 17 17 16 15 14 14 15 15 16 16 17 19 20 21 22 24 25 25 26 27 28 29 29 30 30 30 30 29 27 25 23 22 21 20 19 17 16 16 18 23 34 77 163 185 195 201 203 204 203 202 202 202 204 205 206 206 205 203 202 202 203
10 11 12 13 13 14 15 16 16 16 15 14 14 14 14 15 14 15 16 17 18 19 20 21 22 23 24 25 25 26 27 27 28 29 29 29 27 26 24 23 22 20 18 17 15 13 11 9 9 12 28 98 156 179 188 191 191 191 192 193 194 195 197 198 198 198 198 198 199
9 10 11 11 12 13 13 14 14 15 14 14 14 14 14 14 14 14 16 17 17 18 18 18 19 20 22 23 24 24 24 24 25 25 26 27 26 26 25 24 22 20 19 17 16 14 11 9 4 359 354 353 15 116 157 168 171 173 175 179 180 182 185 188 190 191 191 193 194
10 10 10 10 10 11 11 11 11 12 13 14 14 14 15 15 15 16 16 16 16 16 16 16 16 18 19 21 22 22 22 21 21 22 22 23 24 25 25 23 22 20 19 17 15 13 11 8 6 1 353 342 331 325 144 146 144 146 152 162 169 172 174 178 182 184 185 186 187